This demonstration page uses our WeatherBlox Daily Observations layout. Learn more.

Left ArrowRight Arrow

39.29038, -76.61219

Hourly Observations for February 18, 2019

Temp ( °F °C ) Dew Point ( °F °C ) Humidity (%) Winds ( mph kmh ) Pressure ( in mb ) Visibility ( mi km ) Precip ( " mm )
12:54 am 00:54 undefined 37 2.8 33 0.6 86 86 undefined N/A 29.89 1012 N/A 0.02 0.51
1:54 am 01:54 undefined 37 2.8 34 1.1 89 89 undefined N/A 29.80 1009 N/A 0.06 1.52
2:54 am 02:54 undefined 38 3.3 35 1.7 89 89 undefined N/A 29.80 1009 N/A 0.07 1.78
3:54 am 03:54 undefined 38 3.3 35 1.7 89 89 undefined N/A 29.76 1008 N/A 0.09 2.29
4:54 am 04:54 undefined 39 3.9 35 1.7 86 86 undefined N/A 29.80 1009 N/A 0.02 0.51
5:54 am 05:54 undefined 39 3.9 35 1.7 86 86 undefined N/A 29.80 1009 N/A N/A
6:54 am 06:54 undefined 39 3.9 35 1.7 86 86 undefined N/A 29.83 1010 N/A N/A
7:54 am 07:54 undefined 39 3.9 35 1.7 86 86 undefined N/A 29.86 1011 N/A N/A
8:54 am 08:54 undefined 44 6.7 34 1.1 68 68 undefined N/A 29.91 1013 N/A N/A
9:54 am 09:54 undefined 45 7.2 34 1.1 66 66 undefined N/A 29.92 1013 N/A N/A
10:54 am 10:54 undefined 47 8.3 33 0.6 59 59 undefined N/A 29.96 1015 N/A N/A
11:54 am 11:54 undefined 47 8.3 28 -2.2 48 48 undefined N/A 29.98 1015 N/A N/A
12:54 pm 12:54 undefined 47 8.3 26 -3.3 44 44 undefined N/A 29.98 1015 N/A N/A
1:54 pm 13:54 undefined 45 7.2 25 -3.9 46 46 undefined N/A 30.01 1016 N/A N/A
2:54 pm 14:54 undefined 46 7.8 23 -5 40 40 undefined N/A 30.05 1018 N/A N/A
3:54 pm 15:54 undefined 45 7.2 23 -5 42 42 undefined N/A 30.08 1019 N/A N/A
4:54 pm 16:54 undefined 43 6.1 23 -5 45 45 undefined N/A 30.13 1020 N/A N/A
5:54 pm 17:54 undefined 42 5.6 21 -6.1 43 43 undefined N/A 30.18 1022 N/A N/A
6:54 pm 18:54 undefined 41 5 21 -6.1 45 45 undefined N/A 30.24 1024 N/A N/A
7:54 pm 19:54 undefined 39 3.9 19 -7.2 45 45 undefined N/A 30.27 1025 N/A N/A
8:54 pm 20:54 undefined 38 3.3 19 -7.2 46 46 undefined N/A 30.31 1026 N/A N/A
9:54 pm 21:54 undefined 37 2.8 18 -7.8 46 46 undefined N/A 30.34 1027 N/A N/A
10:54 pm 22:54 undefined 36 2.2 17 -8.3 46 46 undefined N/A 30.37 1029 N/A N/A
11:54 pm 23:54 undefined 35 1.7 17 -8.3 48 48 undefined N/A 30.41 1030 N/A N/A

Powered by AerisWeather